DW8622 Weather Reports


time (UTC)temp
C
wind
direction
speed
KPH
gust
KPH
rain 1hr
cm
rain 24hr
cm
rain mn
cm
humidity
%
barometer
mb
20210920063006 11 33 6.4 12.9 0.00 0.00 0.00 81 1019.4
20210920062506 11 38 8.0 14.5 0.00 0.00 0.00 81 1019.3
20210920062006 11 41 8.0 16.1 0.00 0.00 0.00 81 1019.3
20210920061506 11 42 8.0 16.1 0.00 0.00 0.00 81 1019.3
20210920061006 11 42 6.4 11.3 0.00 0.00 0.00 81 1019.2
20210920060506 11 38 8.0 14.5 0.00 0.00 0.00 81 1019.1
20210920060006 11 35 9.7 14.5 0.00 0.00 0.00 81 1019.1
20210920055506 11 34 9.7 14.5 0.00 0.00 0.00 81 1019.1
20210920055006 11 35 8.0 14.5 0.00 0.00 0.00 81 1019.0
20210920054506 11 36 8.0 12.9 0.00 0.00 0.00 81 1019.0
20210920054005 11 38 6.4 12.9 0.00 0.00 0.00 81 1019.0
20210920053505 11 40 6.4 12.9 0.00 0.00 0.00 81 1018.9
20210920053006 11 41 6.4 12.9 0.00 0.00 0.00 81 1018.9
20210920052506 11 39 8.0 12.9 0.00 0.00 0.00 81 1018.9
20210920052006 11 36 8.0 12.9 0.00 0.00 0.00 81 1018.9
20210920051506 11 37 8.0 12.9 0.00 0.00 0.00 81 1018.8
20210920051005 11 41 8.0 12.9 0.00 0.00 0.00 81 1018.7
20210920050506 11 43 8.0 12.9 0.00 0.00 0.00 81 1018.7
20210920050005 11 44 8.0 12.9 0.00 0.00 0.00 81 1018.6
20210920045506 11 41 8.0 12.9 0.00 0.00 0.00 81 1018.6
20210920045006 11 39 8.0 12.9 0.00 0.00 0.00 81 1018.5
20210920044506 11 37 8.0 12.9 0.00 0.00 0.00 81 1018.5
20210920044006 11 36 8.0 14.5 0.00 0.00 0.00 81 1018.5
20210920043506 11 40 8.0 14.5 0.00 0.00 0.00 81 1018.4
20210920043006 11 43 8.0 12.9 0.00 0.00 0.00 81 1018.3
20210920042506 11 41 6.4 12.9 0.00 0.00 0.00 81 1018.3
20210920042005 11 39 8.0 14.5 0.00 0.00 0.00 81 1018.2
20210920041506 11 39 8.0 14.5 0.00 0.00 0.00 81 1018.2
20210920041006 11 39 8.0 12.9 0.00 0.00 0.00 81 1018.2
20210920040505 11 39 8.0 12.9 0.00 0.00 0.00 81 1018.2
20210920040006 11 43 9.7 14.5 0.00 0.00 0.00 81 1018.1
20210920035506 11 45 9.7 14.5 0.00 0.00 0.00 81 1018.1
20210920035006 11 42 9.7 14.5 0.00 0.00 0.00 81 1018.0
20210920034506 11 41 8.0 12.9 0.00 0.00 0.00 81 1018.0
20210920034005 12 37 8.0 12.9 0.00 0.00 0.00 81 1018.0
20210920033506 12 33 8.0 12.9 0.00 0.00 0.00 81 1018.0
20210920033006 12 32 8.0 12.9 0.00 0.00 0.00 81 1018.0
20210920032507 12 36 6.4 12.9 0.00 0.00 0.00 81 1018.0
20210920032006 12 46 8.0 12.9 0.00 0.00 0.00 81 1017.9
20210920031506 12 48 9.7 12.9 0.00 0.00 0.00 81 1017.8
20210920031006 12 46 9.7 14.5 0.00 0.00 0.00 81 1017.7
20210920030507 12 46 8.0 14.5 0.00 0.00 0.00 81 1017.7
20210920030006 12 47 8.0 14.5 0.00 0.00 0.00 81 1017.6
20210920025506 12 49 9.7 14.5 0.00 0.00 0.00 81 1017.6
20210920025005 12 49 9.7 14.5 0.00 0.00 0.00 81 1017.5
20210920024505 12 49 8.0 14.5 0.00 0.00 0.00 81 1017.5
20210920024006 12 49 6.4 11.3 0.00 0.00 0.00 81 1017.5
20210920023506 12 49 8.0 12.9 0.00 0.00 0.00 81 1017.5
20210920023006 12 50 8.0 12.9 0.00 0.00 0.00 81 1017.5
20210920022505 12 48 8.0 12.9 0.00 0.00 0.00 81 1017.4
20210920022005 12 48 8.0 12.9 0.00 0.00 0.00 81 1017.4
20210920021506 12 48 9.7 14.5 0.00 0.00 0.00 81 1017.3
20210920021005 12 46 9.7 14.5 0.00 0.00 0.00 81 1017.3
20210920020505 12 47 9.7 14.5 0.00 0.00 0.00 81 1017.2
20210920020006 12 48 9.7 12.9 0.00 0.00 0.00 81 1017.2
20210920015506 12 49 9.7 12.9 0.00 0.00 0.00 81 1017.2
20210920015006 12 48 9.7 12.9 0.00 0.00 0.00 81 1017.2
20210920014506 12 48 9.7 14.5 0.00 0.00 0.00 81 1017.2
20210920014006 12 48 9.7 14.5 0.00 0.00 0.00 81 1017.2
20210920013506 12 49 9.7 14.5 0.00 0.00 0.00 81 1017.2
20210920013006 12 49 9.7 12.9 0.00 0.00 0.00 81 1017.2
20210920012506 12 49 8.0 12.9 0.00 0.00 0.00 81 1017.2
20210920012006 12 50 8.0 12.9 0.00 0.00 0.00 81 1017.2
20210920011506 12 50 8.0 12.9 0.00 0.00 0.00 81 1017.2
20210920011006 12 46 8.0 14.5 0.00 0.00 0.00 81 1017.2
20210920010506 12 45 6.4 14.5 0.00 0.00 0.00 81 1017.2
20210920010006 12 48 4.8 11.3 0.00 0.00 0.00 81 1017.2
20210920005506 12 51 4.8 9.7 0.00 0.00 0.00 81 1017.2
20210920005006 12 49 6.4 9.7 0.00 0.00 0.00 81 1017.2
20210920004506 13 47 6.4 9.7 0.00 0.00 0.00 81 1017.2
20210920004006 13 48 4.8 9.7 0.00 0.00 0.00 81 1017.1
20210920003506 13 48 4.8 11.3 0.00 0.00 0.00 81 1017.2
20210920003006 13 48 6.4 11.3 0.00 0.00 0.00 81 1017.2
20210920002506 13 49 4.8 9.7 0.00 0.00 0.00 81 1017.2
20210920002004 13 51 3.2 9.7 0.00 0.00 0.00 81 1017.1
20210920001504 12 50 3.2 9.7 0.00 0.00 0.00 81 1017.0
20210920001005 12 48 4.8 9.7 0.00 0.00 0.00 82 1017.1
20210920000505 12 48 4.8 9.7 0.00 0.00 0.00 81 1017.1
20210920000005 12 48 4.8 9.7 0.00 0.00 0.00 81 1017.1
20210919235504 12 48 4.8 9.7 0.00 0.00 0.00 82 1017.1
20210919235004 12 47 4.8 9.7 0.00 0.00 0.00 82 1017.1
20210919234505 12 47 4.8 9.7 0.00 0.00 0.00 82 1017.1
20210919234005 12 50 6.4 11.3 0.00 0.00 0.00 82 1017.1
20210919233505 12 50 6.4 11.3 0.00 0.00 0.00 82 1017.0
20210919233005 12 50 6.4 9.7 0.00 0.00 0.00 82 1017.0
20210919232505 12 50 4.8 9.7 0.00 0.00 0.00 82 1017.0
20210919232005 12 50 6.4 9.7 0.00 0.00 0.00 82 1017.0
20210919231505 12 49 4.8 9.7 0.00 0.00 0.00 82 1017.0
20210919231005 12 50 4.8 6.4 0.00 0.00 0.00 82 1017.0
20210919230505 12 51 3.2 6.4 0.00 0.00 0.00 82 1017.0
20210919230005 12 52 4.8 9.7 0.00 0.00 0.00 82 1017.0
20210919225504 12 50 4.8 9.7 0.00 0.00 0.00 82 1016.9
20210919225005 12 49 4.8 9.7 0.00 0.00 0.00 82 1016.8
20210919224505 12 49 4.8 9.7 0.00 0.00 0.00 82 1016.8
20210919224005 12 49 4.8 6.4 0.00 0.00 0.00 82 1016.8
20210919223505 12 51 4.8 9.7 0.00 0.00 0.00 82 1016.7
20210919223005 12 52 6.4 9.7 0.00 0.00 0.00 82 1016.7
20210919222505 12 51 6.4 9.7 0.00 0.00 0.00 82 1016.7
20210919222004 12 51 6.4 9.7 0.00 0.00 0.00 82 1016.6
20210919221505 12 49 4.8 9.7 0.00 0.00 0.00 82 1016.6
20210919221005 12 49 4.8 9.7 0.00 0.00 0.00 82 1016.6
20210919220505 12 49 6.4 9.7 0.00 0.00 0.00 82 1016.5
20210919220005 13 47 4.8 9.7 0.00 0.00 0.00 82 1016.5
20210919215505 13 48 4.8 9.7 0.00 0.00 0.00 82 1016.4
20210919215005 12 49 4.8 9.7 0.00 0.00 0.00 82 1016.4
20210919214505 12 50 4.8 6.4 0.00 0.00 0.00 82 1016.4
20210919214005 12 51 3.2 6.4 0.00 0.00 0.00 82 1016.4
20210919213504 12 54 0.0 6.4 0.00 0.00 0.00 82 1016.4
20210919213004 12 47 0.0 4.8 0.00 0.00 0.00 82 1016.3
20210919212504 12 50 1.6 4.8 0.00 0.00 0.00 82 1016.2
20210919212004 12 50 3.2 6.4 0.00 0.00 0.00 82 1016.1
20210919211505 12 50 4.8 6.4 0.00 0.00 0.00 82 1016.1
20210919211004 12 52 4.8 9.7 0.00 0.00 0.00 82 1016.0
20210919210504 12 52 4.8 9.7 0.00 0.00 0.00 82 1016.0
20210919210005 12 53 4.8 6.4 0.00 0.00 0.00 82 1016.0
20210919205504 12 53 4.8 6.4 0.00 0.00 0.00 82 1016.0
20210919205005 12 53 4.8 6.4 0.00 0.00 0.00 82 1015.9
20210919204505 12 53 4.8 6.4 0.00 0.00 0.00 82 1015.9
20210919204004 12 54 4.8 9.7 0.00 0.00 0.00 82 1015.9
20210919203504 12 54 4.8 9.7 0.00 0.00 0.00 82 1015.9
20210919203005 12 53 4.8 6.4 0.00 0.00 0.00 82 1015.8
20210919202505 13 52 3.2 6.4 0.00 0.00 0.00 82 1015.7
20210919202004 13 51 3.2 6.4 0.00 0.00 0.00 82 1015.8
20210919201505 13 50 4.8 6.4 0.00 0.00 0.00 82 1015.7
20210919201005 13 51 4.8 9.7 0.00 0.00 0.00 81 1015.8
20210919200505 13 51 4.8 9.7 0.00 0.00 0.00 81 1015.8
20210919200004 13 52 4.8 9.7 0.00 0.00 0.00 81 1015.7
20210919195505 13 51 4.8 6.4 0.00 0.00 0.00 81 1015.7
20210919195005 13 49 4.8 6.4 0.00 0.00 0.00 81 1015.7
20210919194504 14 49 4.8 11.3 0.00 0.00 0.00 81 1015.6
20210919194005 14 49 4.8 11.3 0.00 0.00 0.00 81 1015.6
20210919193504 14 47 4.8 9.7 0.00 0.00 0.00 81 1015.5
20210919193005 14 48 4.8 6.4 0.00 0.00 0.00 81 1015.5
20210919192505 14 50 4.8 6.4 0.00 0.00 0.00 81 1015.4
20210919192004 14 50 4.8 6.4 0.00 0.00 0.00 81 1015.4
20210919191505 14 50 4.8 6.4 0.00 0.00 0.00 81 1015.3
20210919191004 15 51 4.8 9.7 0.00 0.00 0.00 81 1015.3
20210919190505 15 51 6.4 9.7 0.00 0.00 0.00 81 1015.2
20210919190005 15 51 6.4 9.7 0.00 0.00 0.00 81 1015.1
20210919185505 15 51 4.8 9.7 0.00 0.00 0.00 81 1015.1
20210919185004 15 49 4.8 9.7 0.00 0.00 0.00 81 1015.1
20210919184505 15 50 6.4 11.3 0.00 0.00 0.00 81 1015.0
20210919184004 15 51 8.0 11.3 0.00 0.00 0.00 81 1015.0
20210919183505 15 50 8.0 11.3 0.00 0.00 0.00 81 1015.0
20210919183004 15 51 6.4 9.7 0.00 0.00 0.00 81 1015.0
20210919182504 15 51 6.4 9.7 0.00 0.00 0.00 81 1014.9
20210919182005 15 51 6.4 9.7 0.00 0.00 0.00 81 1014.8
20210919181505 15 51 6.4 9.7 0.00 0.00 0.00 81 1014.8
20210919181004 15 51 4.8 9.7 0.00 0.00 0.00 81 1014.8
20210919180504 15 51 6.4 9.7 0.00 0.00 0.00 81 1014.7
20210919180004 15 52 6.4 9.7 0.00 0.00 0.00 81 1014.8
20210919175505 15 52 6.4 9.7 0.00 0.00 0.00 81 1014.7
20210919175005 15 51 6.4 9.7 0.00 0.00 0.00 80 1014.6
20210919174505 15 52 6.4 9.7 0.00 0.00 0.00 81 1014.6
20210919174005 16 51 6.4 9.7 0.00 0.00 0.00 81 1014.6
20210919173505 16 50 6.4 9.7 0.00 0.00 0.00 80 1014.6
20210919173005 16 50 6.4 9.7 0.00 0.00 0.00 80 1014.5
20210919172504 16 51 6.4 9.7 0.00 0.00 0.00 80 1014.5
20210919172004 16 51 6.4 9.7 0.00 0.00 0.00 80 1014.4
20210919171504 16 50 4.8 9.7 0.00 0.00 0.00 80 1014.4
20210919171004 16 50 4.8 9.7 0.00 0.00 0.00 80 1014.4
20210919170504 17 50 4.8 9.7 0.00 0.00 0.00 80 1014.3
20210919170006 17 49 4.8 6.4 0.00 0.00 0.00 80 1014.3
20210919165505 17 50 4.8 9.7 0.00 0.00 0.00 80 1014.3
20210919165005 17 50 6.4 9.7 0.00 0.00 0.00 79 1014.2
20210919164505 17 51 6.4 9.7 0.00 0.00 0.00 79 1014.2
20210919164006 17 52 6.4 9.7 0.00 0.00 0.00 79 1014.3
20210919163505 18 51 6.4 11.3 0.00 0.00 0.00 79 1014.2
20210919163005 18 50 6.4 11.3 0.00 0.00 0.00 79 1014.2
20210919162504 18 49 4.8 9.7 0.00 0.00 0.00 79 1014.2
20210919162005 18 50 4.8 9.7 0.00 0.00 0.00 78 1014.2
20210919161505 18 50 4.8 9.7 0.00 0.00 0.00 78 1014.1
20210919161004 18 49 6.4 11.3 0.00 0.00 0.00 78 1014.1
20210919160505 19 49 6.4 11.3 0.00 0.00 0.00 77 1014.1
20210919160005 19 50 4.8 9.7 0.00 0.00 0.00 77 1014.1
20210919155505 19 50 3.2 6.4 0.00 0.00 0.00 77 1014.1
20210919155004 19 48 4.8 11.3 0.00 0.00 0.00 77 1014.1
20210919154505 19 47 6.4 12.9 0.00 0.00 0.00 76 1014.1
20210919154005 19 46 4.8 12.9 0.00 0.00 0.00 77 1014.0
20210919153505 19 46 4.8 11.3 0.00 0.00 0.00 77 1014.1
20210919153005 19 48 4.8 11.3 0.00 0.00 0.00 76 1014.1
20210919152505 19 53 1.6 11.3 0.00 0.00 0.00 76 1014.1
20210919152005 20 87 0.0 6.4 0.00 0.00 0.00 74 1014.1
20210919151504 20 81 1.6 8.0 0.00 0.00 0.00 73 1014.1
20210919151004 20 77 1.6 8.0 0.00 0.00 0.00 72 1014.1
20210919150505 20 59 1.6 6.4 0.00 0.00 0.00 74 1014.1
20210919150005 20 54 1.6 8.0 0.00 0.00 0.00 73 1014.0
20210919145505 20 50 1.6 8.0 0.00 0.00 0.00 71 1014.0
20210919145004 20 56 1.6 8.0 0.00 0.00 0.00 72 1013.9
20210919144505 20 54 1.6 8.0 0.00 0.00 0.00 73 1013.9
20210919144005 20 46 1.6 8.0 0.00 0.00 0.00 73 1013.9
20210919143505 20 49 1.6 9.7 0.00 0.00 0.00 73 1013.9
20210919143005 20 53 1.6 9.7 0.00 0.00 0.00 73 1013.8
20210919142505 20 66 1.6 9.7 0.00 0.00 0.00 73 1013.9
20210919142005 20 69 1.6 9.7 0.00 0.00 0.00 72 1013.9
20210919141505 20 57 3.2 8.0 0.00 0.00 0.00 71 1013.9
20210919141005 20 52 3.2 14.5 0.00 0.00 0.00 70 1013.9
20210919140505 21 49 3.2 14.5 0.00 0.00 0.00 71 1013.9
20210919140005 21 46 4.8 14.5 0.00 0.00 0.00 69 1013.9
20210919135504 21 56 6.4 14.5 0.00 0.00 0.00 69 1013.8
20210919135005 21 73 4.8 14.5 0.00 0.00 0.00 68 1013.8
20210919134505 21 74 4.8 14.5 0.00 0.00 0.00 67 1013.8
20210919134005 21 52 6.4 16.1 0.00 0.00 0.00 68 1013.8
20210919133505 21 46 8.0 17.7 0.00 0.00 0.00 69 1013.8
20210919133004 21 46 8.0 17.7 0.00 0.00 0.00 69 1013.8
20210919132505 21 48 4.8 14.5 0.00 0.00 0.00 68 1013.8
20210919132005 21 47 6.4 17.7 0.00 0.00 0.00 69 1013.8
20210919131505 21 52 6.4 17.7 0.00 0.00 0.00 68 1013.8
20210919131005 21 72 4.8 12.9 0.00 0.00 0.00 68 1013.8
20210919130504 21 80 4.8 12.9 0.00 0.00 0.00 68 1013.9
20210919130004 21 68 3.2 11.3 0.00 0.00 0.00 68 1013.9
20210919125505 21 85 4.8 17.7 0.00 0.00 0.00 69 1014.0
20210919125005 21 93 4.8 17.7 0.00 0.00 0.00 69 1014.0
20210919124505 21 90 4.8 17.7 0.00 0.00 0.00 69 1014.1
20210919124004 21 68 6.4 16.1 0.00 0.00 0.00 70 1014.1
20210919123504 21 58 4.8 14.5 0.00 0.00 0.00 70 1014.1
20210919123005 21 74 4.8 14.5 0.00 0.00 0.00 71 1014.1
20210919122505 21 80 4.8 17.7 0.00 0.00 0.00 71 1014.1
20210919122005 21 66 6.4 17.7 0.00 0.00 0.00 72 1014.2
20210919121504 21 50 6.4 17.7 0.00 0.00 0.00 73 1014.2
20210919121004 21 47 4.8 17.7 0.00 0.00 0.00 74 1014.2
20210919120505 21 47 6.4 14.5 0.00 0.00 0.00 74 1014.3
20210919120005 21 46 6.4 16.1 0.00 0.00 0.00 75 1014.4
20210919115504 20 49 4.8 16.1 0.00 0.00 0.00 74 1014.4
20210919115005 20 51 3.2 11.3 0.00 0.00 0.00 74 1014.4
20210919114504 20 52 3.2 11.3 0.00 0.00 0.00 76 1014.4
20210919114005 20 69 4.8 12.9 0.00 0.00 0.00 75 1014.5
20210919113505 20 64 4.8 12.9 0.00 0.00 0.00 74 1014.5
20210919113005 20 53 3.2 16.1 0.00 0.00 0.00 74 1014.5
20210919112505 20 52 4.8 16.1 0.00 0.00 0.00 75 1014.5
20210919112005 20 49 4.8 12.9 0.00 0.00 0.00 76 1014.5
20210919111505 20 48 4.8 14.5 0.00 0.00 0.00 76 1014.5
20210919111004 20 50 4.8 14.5 0.00 0.00 0.00 75 1014.6
20210919110505 20 53 6.4 14.5 0.00 0.00 0.00 76 1014.5
20210919110005 20 49 8.0 14.5 0.00 0.00 0.00 75 1014.5
20210919105505 20 45 8.0 14.5 0.00 0.00 0.00 76 1014.4
20210919105004 20 46 8.0 14.5 0.00 0.00 0.00 76 1014.4
20210919104505 20 57 4.8 14.5 0.00 0.00 0.00 77 1014.5
20210919104004 19 68 1.6 12.9 0.00 0.00 0.00 77 1014.6
20210919103505 19 60 3.2 12.9 0.00 0.00 0.00 77 1014.6
20210919103005 19 59 4.8 14.5 0.00 0.00 0.00 76 1014.6
20210919102506 19 50 4.8 14.5 0.00 0.00 0.00 78 1014.6
20210919102005 19 56 4.8 12.9 0.00 0.00 0.00 78 1014.7
20210919101505 18 66 4.8 12.9 0.00 0.00 0.00 78 1014.7
20210919101004 18 54 4.8 12.9 0.00 0.00 0.00 77 1014.7
20210919100505 18 48 6.4 14.5 0.00 0.00 0.00 79 1014.6
20210919100005 18 51 6.4 16.1 0.00 0.00 0.00 78 1014.6
20210919095505 18 49 6.4 16.1 0.00 0.00 0.00 79 1014.5
20210919095005 18 47 8.0 16.1 0.00 0.00 0.00 79 1014.5
20210919094505 18 45 8.0 16.1 0.00 0.00 0.00 79 1014.5
20210919094005 18 44 8.0 17.7 0.00 0.00 0.00 79 1014.6
20210919093505 18 45 8.0 17.7 0.00 0.00 0.00 79 1014.6
20210919093004 17 45 9.7 17.7 0.00 0.00 0.00 80 1014.5
20210919092505 17 45 11.3 17.7 0.00 0.00 0.00 80 1014.5
20210919092005 17 45 12.9 17.7 0.00 0.00 0.00 80 1014.5
20210919091505 17 48 9.7 17.7 0.00 0.00 0.00 80 1014.5
20210919091005 17 52 8.0 16.1 0.00 0.00 0.00 80 1014.5
20210919090505 17 49 8.0 19.3 0.00 0.00 0.00 80 1014.5
20210919090005 17 45 9.7 19.3 0.00 0.00 0.00 80 1014.5
20210919085504 17 44 12.9 19.3 0.00 0.00 0.00 81 1014.4
20210919085005 16 45 14.5 20.9 0.00 0.00 0.00 81 1014.4
20210919084505 16 45 12.9 20.9 0.00 0.00 0.00 81 1014.3
20210919084005 16 45 12.9 17.7 0.00 0.00 0.00 81 1014.3
20210919083505 16 46 11.3 16.1 0.00 0.00 0.00 81 1014.3
20210919083006 16 46 9.7 16.1 0.00 0.00 0.00 81 1014.4
20210919082505 16 47 9.7 14.5 0.00 0.00 0.00 81 1014.4
20210919082004 16 45 9.7 16.1 0.00 0.00 0.00 82 1014.4
20210919081505 15 44 9.7 16.1 0.00 0.00 0.00 82 1014.3
20210919081005 15 45 11.3 16.1 0.00 0.00 0.00 83 1014.4
20210919080505 15 44 9.7 16.1 0.00 0.00 0.00 83 1014.4
20210919080005 15 43 9.7 14.5 0.00 0.00 0.00 84 1014.4
20210919075505 14 44 9.7 16.1 0.00 0.00 0.00 84 1014.3
20210919075005 14 44 9.7 16.1 0.00 0.00 0.00 84 1014.4
20210919074505 13 43 9.7 14.5 0.00 0.00 0.00 84 1014.3
20210919074004 13 42 9.7 16.1 0.00 0.00 0.00 85 1014.3
20210919073505 13 44 9.7 16.1 0.00 0.00 0.00 85 1014.2
20210919073005 13 44 9.7 14.5 0.00 0.00 0.00 85 1014.2
20210919072505 13 42 8.0 14.5 0.00 0.00 0.00 85 1014.2
20210919072005 13 43 6.4 12.9 0.00 0.00 0.00 85 1014.3
20210919071505 12 44 6.4 12.9 0.00 0.00 0.00 85 1014.3
20210919071005 12 45 6.4 11.3 0.00 0.00 0.00 85 1014.3
20210919070505 12 48 6.4 11.3 0.00 0.00 0.00 85 1014.3
20210919070006 12 48 6.4 11.3 0.00 0.00 0.00 85 1014.2
20210919065505 12 45 6.4 11.3 0.00 0.00 0.00 85 1014.2
20210919065005 12 43 6.4 11.3 0.00 0.00 0.00 85 1014.1
20210919064505 11 40 4.8 11.3 0.00 0.00 0.00 85 1014.0
20210919064005 11 36 1.6 11.3 0.00 0.00 0.00 85 1013.9
20210919063505 11 0 0.0 0.0 0.00 0.00 0.00 85 1013.9